Timeline UpdatesTrip UpdatesNews PostsPvt PostsTravel TipsAdmin PostsConv PostsFollowed PostsChat RequestsBlog PostsPNR Posts

Disclaimer
Search
 
 
Tue Sep 2, 2014 19:38:39 ISTHomeTrainsΣChainsAtlasPNRForumGalleryNewsFAQTripsMembersLoginFeedback
No Recent News for this Train
Other Trains in the News **new
Latest...
.
Sun Aug 24, 2014 (02:51PM)
⇐ Return Journey: Train# 12990

12989/Dadar Ajmer Superfast Express

Time-Table HAS CHANGED.
Yesterday (11:35PM)
Change Departure Station:
Change Arrival Station:
Post a Train Travel TipPost a Train Travel Tip **new
Post a Comment/Question/Picture/VideoPost a Comment/Question/Picture/Video
Pantry/Catering
✕ NO Pantry Car
✓ Catering Avbl
RSA - Rake Sharing
No Rake Sharing Arrangement.
Rake/Coach Composition
LOCO - SLR cum Ladies-GEN-GEN-A2-A1-B1-B2-B3-S13-S12-S11-S10-S9-S8-S7-S6-S5-S4-S3-S2-S1-GEN-GEN-SLR.
Loco
DDR-ADI --- BL WCAM 1/ BRC WAP4E / WAP5 ADI-AII...
Read more...
--- vatva WDM / BGKT WDP 4
News    PNR    Forum    Time-Table    Availability    Fare Chart    Map    Arr/Dep History    Trips    Gallery    ΣChains    X/O    Timeline    
Travel Time: 13h 38m    17 halts    Distance: 725 km    Avg Speed: 53 km/hr
Type: SuperFast
Zone: NWR/North Western
Departs @ 18:27
Platform# 1
 M  T S
Surat/ST 
Arrives @ 08:05 +1 night
Platform# 1
S T  F 
Ajmer Junction/AII 

17 halts. 130 intermediate Stations between Surat and Ajmer Junction

Hide intermediate Stations  Show Old Time-Table

#CodeStation NameX/OArrivesAvgDepartsAvgHaltPFDay#KmSpeedElevZoneAddress
1DDRMumbai Dadar Western (6)  -14:35-61-257.2516mWRMumbai, Maharashtra
1.1MRUMumbai Matunga Road (2)  14:36-14:36-  1-255.9 517mWRMumbai, Maharashtra
1.2MMMumbai Mahim Junction (6)  14:38-14:38-  1-254.7 515mWRMumbai, Maharashtra
1.3BABandra (7)  14:40-14:40-  1-253.0 516mWRMumbai, Maharashtra
1.4BDTSMumbai Bandra Terminus (5)X  14:41-14:41-  1-252.2 514mWRMumbai 400050, Maharashtra
1.5KHARKhar (6)  14:42-14:42-  1-251.3 517mWRMumbai, Maharashtra
1.6STCSanta Cruz (6)  14:44-14:44-  1-249.9 5110mWRMumbai, Maharashtra
1.7VLPVille Parle (6)  14:46-14:46-  1-248.0 5111mWRMumbai, Maharashtra
1.8ADHMumbai Andheri (9)  14:48-14:48-  1-246.0 5112mWRMumbai, Maharashtra
1.9JOSJogeshwari (4)  14:51-14:51-  1-243.8 5114mWRMumbai, Maharashtra
1.10GMNGoregaon (5)  14:54-14:54-  1-240.7 5115mWRMumbai - 400104, Maharashtra
1.11MDDMalad (4)  14:57-14:57-  1-238.3 5118mWRMumbai-400064, Maharashtra
1.12KILEKandivli (4)  15:00-15:00-  1-236.2 5114mWRMumbai, Maharashtra
2BVIMumbai Borivali (8)  15:03-15:06-3m41-233.47719mWRMumbai - 400092, Maharashtra
2.1DICDahisar (4)  15:08-15:08-  1-231.1 7714mWRMumbai, Maharashtra
2.2MIRAMira Road (4)  15:10-15:10-  1-227.7 773mWRMira Bhayandar, Maharashtra
2.3BYRBhayandar (6)X  15:13-15:13-  1-224.4 776mWRThane, Maharashtra
2.4NIGNaigaon (4)  15:17-15:17-  1-219.7 775mWRNaigaon West, Maharashtra
2.5BSRVasai Road (7)  15:20-15:20-  1-216.0 777mWRVasai 401202, Maharashtra
2.6NSPNallasopara (4)  15:23-15:23-  1-211.8 775mWRNallasopara station Rd, Maharashtra
2.7VRVirar (8)X  15:26-15:26-  1-207.6 776mWRDist. Palghar, Maharashtra
2.8VTNVaitarna (2)  15:33-15:33-  1-199.1 773mWRDist. Palghar, Maharashtra
2.9SAHSaphale (2)X  15:39-15:39-  1-191.3 778mWRDist. Palghar, Maharashtra
2.10KLVKelve Road (3)X  15:44-15:44-  1-184.9 7710mWRDist. Palghar, Maharashtra
2.11PLGPalghar (3)  15:51-15:51-  1-176.5 7719mWRPalghar, Maharashtra
2.12UOIUmroli (2)  15:56-15:56-  1-170.1 778mWRBoisar, Maharashtra
2.13BORBoisar (3)  15:59-15:59-  1-165.2 7717mWRBoisar Tel.no-02525-266626, Maharashtra
2.14VGNVangaon (3)X  16:07-16:07-  1-155.8 7711mWRDist. Palghar, Maharashtra
2.15DRDDahanu Road (5)  16:16-16:16-  1-143.5 7712mWRDahanu, Maharashtra
2.16GVDGholvad (4)  16:25-16:25-  1-132.3 7714mWRGholvad, Maharashtra
2.17BRRDBordi Road (2)X  16:29-16:29-  1-127.4 7717mWRBordi, Maharashtra
2.18UBRUmbargam Road (3)X  16:32-16:32-  1-123.2 7730mWRUmbergaon, Gujarat
2.19SJNSanjan (3)  16:37-16:37-  1-117.8 7722mWRSanjan, Gujarat
2.20BLDBhilad (3)  16:46-16:46-  1-106.2 7733mWRBhilad, Gujarat
2.21KEBKarambeli (2)O  16:49-16:49-  1-101.4 7729mWRNational Highway 8, Gujarat
2.22VAPIVapi (3)X  16:54-16:54-  1-94.9 7727mWRVapi, Gujarat
2.23BAGDBagwada (2)  17:00-17:00-  1-88.2 7722mWRNH8, Gujarat
2.24UVDUdvada (3)X  17:02-17:02-  1-85.4 7718mWRUdvada, Gujarat
2.25PADPardi (3)X  17:07-17:07-  1-79.4 7719mWRValsad, Gujarat
2.26ATULAtul (3)  17:10-17:10-  1-75.4 7722mWRValsad, Gujarat
3BLValsad (3)  17:15-17:17-2m21-68.78115mWRValsad, Gujarat
3.1DGIDungri (3)  17:24-17:24-  1-59.8 8120mWRNH 8, Gujarat
3.2JRSJoravasan (2)  17:27-17:27-  1-54.7 8115mWRJoravasan, Gujarat
3.3BIMBilimora Junction (4)X  17:30-17:30-  1-50.8 8111mWRBilimora, Gujarat
3.4AMLAmalsad (3)  17:34-17:34-  1-45.2 8112mWRAmalsad, Gujarat
3.5ACLAncheli (2)X  17:37-17:37-  1-41.4 8120mWRNavsari, Gujarat
3.6VDHVedchha (3)  17:40-17:40-  1-38.0 8113mWRNavsari, Gujarat
3.7HXRHansapore (2)  17:43-17:43-  1-34.2 8115mWRHansapore, Gujarat
3.8GNSTGandhi Smriti (2)  17:44-17:44-  1-32.6 8116mWRGandhi Smriti Navsari, Gujarat
4NVSNavsari (3)X  17:46-17:48-2m11-29.65214mWRNavsari, Gujarat
4.1MRLMaroli (3)  17:58-17:58-  1-21.2 5215mWRMaroli, Gujarat
4.2SCHSachin (3)X  18:05-18:05-  1-14.5 5211mWRKansad Road Sachin, Gujarat
4.3BHETBhestan (2)X  18:12-18:12-  1-8.8 5213mWRSurat, Gujarat
4.4UDNUdhna Junction (3)  18:17-18:17-  1-4.0 5216mWRUdhna 394210, Gujarat
5ST»Surat (4)»X  18:22-18:27-5m110.07719mWRSurat 395001, Gujarat
5.1URNUtran (3)X  18:30-18:30-  13.9 7715mWRSurat, Gujarat
5.2KSEKosad (2)X  18:32-18:32-  17.1 7717mWRSurat, Gujarat
5.3GTXGothangam (2)  18:35-18:35-  110.7 7719mWRAmroli Sayan Rd, Gujarat
5.4SYNSayan (3)X  18:38-18:38-  113.7 7721mWRSayan Satellite town, Gujarat
5.5KDSDKudsad (2)X  18:43-18:43-  120.8 7718mWRNH 8, Gujarat
5.6KIMKim (2)  18:45-18:45-  123.6 7718mWRNH 8, Gujarat
5.7KSBKosamba Junction (3)  18:51-18:51-  131.4 7730mWRKosamba, Gujarat
5.8HATHathuran (2)X  18:55-18:55-  135.8 7732mWRKosamba, Gujarat
5.9PAOPanoli (3)X  18:58-18:58-  139.6 7729mWRPanoli, Gujarat
5.10SNJLSanjali (2)O  19:01-19:01-  143.9 7723mWRSanjali, Gujarat
5.11AKVAnkleshwar Junction (4)X  19:06-19:06-  149.9 7719mWRAnkleshwar, Gujarat
6BHBharuch Junction (5)  19:21 19:13-19:23 19:15-2m1159.37119mWRBharuch, Gujarat
6.1CVJChavaj (2)X  19:19-19:19-  164.3 7120mWRBharuch, Gujarat
6.2NIUNabipur (3)X  19:25-19:25-  171.3 7124mWRNabipur, Gujarat
6.3VREVarediya (4)  19:31-19:31-  178.1 7121mWRNH 8, Gujarat
6.4PLJPalej (4)  19:37-19:37-  184.7 7129mWRPalej, Gujarat
6.5LKDLakodara (4)X  19:43-19:43-  191.9 7126mWRNH 8, Gujarat
6.6MYGLMiyagam Karjan Junction NG  19:50-19:50-  199.9 710mWRKarjan, Gujarat
6.7MYGMiyagam Karjan (2)  19:50-19:50-  1100.0 7129mWRKarjan, Gujarat
6.8KSPRKashipura Sarar (2)O  19:56-19:56-  1107.7 7126mWRGIDC Industrial Area, Gujarat
6.9ITAItola (4)  19:59-19:59-  1111.5 7127mWRNational Highway 8 Vadodara, Gujarat
6.10VRMVarnama (2)  20:03-20:03-  1115.5 7128mWRVadodara, Gujarat
6.11MPRMakarpura (4)X  20:08-20:08-  1121.1 7130mWRVadodara, Gujarat
6.12VSVishvamitri (4)  20:12-20:12-  1126.8 7130mWRVadodara, Gujarat
7BRCVadodara Junction (7)X  20:20 20:15-20:25 20:20-5m31129.87236mWRVadodara 390005, Gujarat
7.1BRGYVadodara D Cabin  20:21-20:21-  1130.4 7236mWRVadodara, Gujarat
7.2BJWBajva (3)X  20:26-20:26-  1137.0 7238mWRVadodara, Gujarat
7.3KRCAKarachiya Yard  20:28-20:28-  1139.0 7239mWRVadodara, Gujarat
7.4RNORanoli (2)  20:29-20:29-  1140.8 7239mWRVadodara District, Gujarat
7.5NDRNandesari (2)  20:33-20:33-  1145.0 7242mWRNandesari, Gujarat
7.6VDAVasad Junction (3)  20:37-20:37-  1150.0 7240mWRVasad, Gujarat
7.7ADDAdas Road (4)  20:41-20:41-  1154.6 7242mWRNational Highway 8, Gujarat
7.8VXDVadod (3)  20:44-20:44-  1158.7 7244mWRAnand District, Gujarat
8ANNDAnand Junction (6)X  20:57 20:50-20:59 20:52-2m21165.57444mWRAnand, Gujarat
8.1KBRVKanjari Boriyavi Junction (4)  20:58-20:58-  1173.0 7439mWRKanjari, Gujarat
8.2UTDUtarsanda (4)  21:03-21:03-  1178.5 7440mWRUttarsanda, Gujarat
9NDNadiad Junction (4)X  21:14 21:07-21:16 21:09-2m21184.04537mWRNadiad, Gujarat
9.1GTEGothaj (2)X  21:21-21:21-  1193.3 4532mWRState Highway 3, Gujarat
9.2MHDMahemdavad Kheda Road (4)  21:33-21:33-  1201.6 4537mWRMahemdavad, Gujarat
9.3NEPNenpur (2)X  21:38-21:38-  1205.8 4535mWRState Highway 3, Gujarat
9.4KANJKanij (3)XO  21:42-21:42-  1208.6 4539mWRBareja-Barejadi Rd, Gujarat
9.5BJDBarejadi Nandej (3)  21:48-21:48-  1213.0 4542mWRBareja-Barejadi Rd, Gujarat
9.6GERGeratpur (2)  21:52-21:52-  1216.3 4544mWRAhmadabad, Gujarat
9.7VTAVatva (4)  21:59-21:59-  1221.6 4549mWRDist. Ahmedabad 382445, Gujarat
9.8MANManinagar (2)X  22:06-22:06-  1226.4 4550mWRAhmadabad, Gujarat
9.9KKFKankaria  22:08-22:08-  1227.8 4548mWRAhmedabad, Gujarat
10ADIAhmedabad Junction (12)X  22:10-22:30-20m11229.65651mWRAhmedabad, Gujarat
10.1SBTASabarmati A Cabin  22:33-22:33-  1232.6 5656mWRSabarmati A Cabin, Gujarat
10.2SBICSabarmati Bridge  22:35-22:35-  1234.3 5654mWRSabarmati Bridge, Gujarat
10.3SBTSabarmati Junction (3)  22:36-22:36-  1235.0 5652mWRAhmedabad, Gujarat
10.4SBISabarmati Junction (3)  22:36-22:36-  1235.0 5655mWRAhmadabad, Gujarat
10.5SBISSabarmati South  22:39-22:39-  1238.3 5656mWRSabarmati South, Gujarat
10.6CLDBChandlodiya BX  22:44-22:44-  1242.7 5655mWRAhmedabad, Gujarat
10.7KHDKhodiyarX  22:52-22:52-  1250.0 5665mWRGandhinagar, Gujarat
10.8SHRDSaij Sertha Road (2)  22:59-22:59-  1256.6 5671mWRJhulasan, Gujarat
10.9KLLKalol (3)  23:03-23:03-  1260.8 5671mWRKalol, Gujarat
10.10CTRLChhatral  23:07-23:07-  1264.3 5672mWRState Highway 133, Gujarat
10.11ENIsand  23:09-23:09-  1266.1 5677mWRKhodiyar, Gujarat
10.12PNPansar  23:11-23:11-  1268.3 5674mWRPalanpur, Gujarat
10.13JULJhulasan (3)  23:14-23:14-  1270.6 5677mWRMehsana, Gujarat
10.14GUSBGhumasan BgX  23:17-23:17-  1273.5 5681mWRChandarda, Gujarat
10.15GUSGhumasanX  23:17-23:17-  1273.5 5682mWRState Highway 41, Gujarat
10.16DNWDangarwa  23:21-23:21-  1277.2 5683mWRJagudan, Gujarat
10.17KYSDKaiyal Sedhavi  23:26-23:26-  1281.6 5685mWRState Highway 217, Gujarat
10.18KYSBKaiyal Sedhavi Bg  23:26-23:26-  1281.6 5685mWRLanghanaj, Gujarat
10.19UMNAmbliyasanX  23:29-23:29-  1285.0 5690mWRMehsana, Gujarat
10.20JDNMJagudan  23:37-23:37-  1292.8 5690mWRKochva Road, Gujarat
10.21JDNJagudan  23:38-23:38-  1292.8 5690mWRKochva Road, Gujarat
10.22SXSShobhasan  23:42-23:42-  1297.1 5686mWRState Highway 41, Gujarat
11MSHMahesana Junction (6)  23:50 23:48-23:55 23:50-5 2m11302.65595mWRMehsana, Gujarat
11.1MSHMMahesana  23:50-23:50-  1302.7 5594mWRMehsana, Gujarat
11.2BHUBhandu MotidauX  00:02-00:02-  2313.7 5597mWRMahesana, Gujarat
11.3UARUnawa Aithor  00:09-00:09-  2319.8 55108mWRGujarat State Highway 41, Gujarat
12UJAUnjha  00:16 00:14-00:18 00:16-2m--2324.562116mWRUnjha, Gujarat
12.1KMLIKamli  00:23-00:23-  2331.8 62126mWRChhapi, Gujarat
12.2SIDSiddhpur  00:29-00:29-  2338.2 62136mWRState Highway 41, Gujarat
12.3DRWDharewada  00:35-00:35-  2343.8 62145mWRUnjha, Gujarat
13CHPChhapiX  00:44 00:42-00:46 00:44-2m--2351.422169mWRBanaskantha, Gujarat
13.1UMUmardashiX  01:05-01:05-  2359.2 22187mWRChitrasani, Gujarat
14PNUPalanpur Junction (5)X  01:30 01:28-01:55 01:30-25 2m--2367.645216mWRPalanpur, Gujarat
14.1KRJDKarjodaX  01:38-01:38-  2373.7 45234mNWRChhapi, Gujarat
14.2CTTChitrasani  01:45-01:45-  2379.1 45225mNWRChitrasani, Gujarat
14.3JTYJethi  01:51-01:51-  2383.5 45212mNWRBANASKANTHA, Gujarat
14.4IQGIqbal GadhX  01:59-01:59-  2389.6 45209mNWRBanaskantha, Gujarat
14.5SZASarotra Road  02:09-02:09-  2397.1 45216mNWRSarotra, Gujarat
14.6SIMShri AmirgadhX  02:16-02:16-  2402.5 45229mNWRAmirgadh, Gujarat
14.7MAAMaval  02:28-02:28-  2410.9 45245mNWRNational Highway 14, Rajasthan
15ABRAbu Road (3)X  02:40-02:50-10m22420.268264mNWRSirohi Dist, Rajasthan
15.1MXOMorthala  02:53-02:53-  2423.3 68267mNWRNH 14, Rajasthan
15.2KWIKivarli  02:58-02:58-  2429.2 68281mNWRShri Amirgadh, Rajasthan
15.3BMNBhimanaX  03:05-03:05-  2437.1 68313mNWRAbu Road, Rajasthan
15.4SRPJSwarupGanj  03:13-03:13-  2445.6 68334mNWRSirohi Road, Rajasthan
15.5BNSBanas  03:20-03:20-  2454.0 68347mNWRSirohi Road, Rajasthan
16SOHSirohi Road (2)  03:32 03:29-03:34 03:31-2m12464.161369mNWRPindwara, Rajasthan
16.1KVJKeshavganjX  03:39-03:39-  2472.0 61393mNWRJawai Bandh, Rajasthan
16.2NANANana  03:48-03:48-  2481.1 61355mNWRNana, Rajasthan
16.3KTRKothar  03:54-03:54-  2487.2 61346mNWRPali, Rajasthan
16.4MOIMori Bera  04:00-04:00-  2493.5 61323mNWRNana, Rajasthan
17JWBJawai Bandh  04:02 04:09-04:04 04:11-2m12502.975292mNWRPali, Rajasthan
17.1BRLYBiroliya  04:18-04:18-  2511.1 75294mNWRBiroliya Rd, Rajasthan
18FAFalna (2)  04:21 04:24-04:23 04:26-2m22519.172282mNWRFalna, Rajasthan
18.1KZQKhimel  04:33-04:33-  2527.2 72277mNWRJawai Bandh, Rajasthan
19RANIRaniX  04:38-04:40-2m12533.559280mNWRRania, Rajasthan
19.1BGPRBhagwanpura  04:48-04:48-  2541.6 59276mNWRSomesar, Rajasthan
19.2JALJawali  04:56-04:56-  2549.2 59270mNWRRania, Rajasthan
19.3SOSSomesar  05:05-05:05-  2557.6 59269mNWRSomesar, Rajasthan
19.4BWABhinwaliya  05:11-05:11-  2563.7 59268mNWRPindwara, Rajasthan
19.5BGGBanta Raghunathgarh  05:17-05:17-  2569.6 59266mNWRSomesar, Rajasthan
19.6AUWAAuwa (2)  05:24-05:24-  2576.9 59265mNWRSomesar, Rajasthan
20MJMarwar Junction (4)X  05:26 05:33-05:28 05:35-2m12585.674267mNWRMarwar Junction, Rajasthan
20.1DRSDhareshwar  05:42-05:42-  2594.4 74275mNWRMarwar Jn, Rajasthan
20.2BFYBhesana  05:47-05:47-  2600.9 74285mNWRMarwar, Rajasthan
21SODSojat Road (2)  05:43 05:52-05:45 05:53-2 1m12606.566295mNWRSojat Road, Rajasthan
21.1BQNBagri Nagar  05:58-05:58-  2611.8 66295mNWRMarwar, Rajasthan
21.2BGXBagri Sajjanpur  06:02-06:02-  2615.9 66298mNWRHaripur, Rajasthan
21.3CNLChandawalX  06:07-06:07-  2621.7 66304mNWRPali, Rajasthan
21.4GRIGuriya  06:16-06:16-  2631.9 66323mNWRPali, Rajasthan
21.5HPHaripur  06:23-06:23-  2639.8 66345mNWRPali, Rajasthan
21.6BARBarX  06:33-06:33-  2650.3 66383mNWRHaripur, Rajasthan
21.7SEUSendraO  06:40-06:40-  2659.1 66427mNWRSabalpura, Rajasthan
21.8APAAmarpura  06:48-06:48-  2667.3 66468mNWRKharwa, Rajasthan
22BERBeawar (2)  06:48 06:53-06:50 06:55-2m22673.045447mNWRBeawar, Rajasthan
22.1BNGMBangurgram HaltX  07:02-07:02-  2677.9 45434mNWRBeawar, Rajasthan
22.2PPFPiplaj  07:08-07:08-  2682.4 45449mNWRBeawar, Rajasthan
22.3KRWKharwaX  07:16-07:16-  2688.7 45439mNWRAjmer, Rajasthan
22.4LNALamana  07:24-07:24-  2694.7 45441mNWRBeawar, Rajasthan
22.5MLIMangaliyawas  07:31-07:31-  2699.5 45430mNWRMangliyawas Railway Station, Rajasthan
22.6MKRAMakrera  07:38-07:38-  2704.7 45446mNWRKharwa, Rajasthan
22.7SDHSaradhna  07:44-07:44-  2709.5 45461mNWRMangaliyawas, Rajasthan
22.8DOZDaurai  07:55-07:55-  2717.7 45458mNWRMadar, Rajasthan
23AII•Ajmer Junction (5)•  08:05--12725.2-464mNWRPin: 305001, Rajasthan
Scroll to Top
Scroll to Bottom